GFSFLT2_925_rhum_024.txt.gz
RH
83 78 72 62 51 47 42 42 41 43 52 54 53 58 59 57 53 53 51 47 49 46 46 47 45 46 46 45 40 32 33 40
75 65 52 47 44 41 42 43 42 55 59 59 60 61 62 62 57 55 54 53 51 51 49 47 45 45 46 47 47 43 40 33
51 43 44 39 40 42 44 44 57 61 63 63 63 64 65 65 64 58 54 51 50 52 53 48 46 47 49 49 48 48 47 44
40 36 34 34 40 41 48 56 64 66 65 63 66 69 67 65 63 59 52 48 48 51 50 50 48 45 52 51 51 49 49 49
36 33 30 36 42 53 57 59 65 65 66 68 66 66 68 64 54 51 51 52 51 52 48 42 39 41 45 51 51 50 51 52
42 41 38 46 51 55 60 64 65 65 66 66 61 61 59 53 50 52 51 49 44 38 37 37 36 37 39 41 44 46 49 51
48 46 47 46 54 58 62 64 63 67 66 64 65 59 55 53 52 49 41 39 38 38 38 38 36 35 34 32 33 38 39 38
56 57 52 56 58 57 59 62 65 70 69 64 62 59 54 54 47 39 39 40 40 40 39 39 37 35 31 28 27 27 28 31
60 61 72 67 64 67 72 66 67 74 71 59 61 60 56 44 39 42 42 41 41 41 40 38 37 35 30 28 28 28 36 40
65 66 68 67 65 67 75 61 68 70 60 60 57 49 43 42 42 41 42 41 40 38 38 36 34 31 29 28 32 37 43 51
70 72 74 75 63 81 60 53 59 60 53 48 45 43 42 42 43 42 40 38 38 37 35 35 37 43 44 45 37 34 55 58
76 80 79 90 81 58 56 53 49 48 46 47 42 49 45 44 42 42 41 40 41 43 43 44 55 69 59 62 46 51 56 59
75 68 88 61 54 50 46 45 46 51 48 45 46 45 45 43 43 44 42 40 36 40 44 52 56 62 70 61 49 61 41 59
78 79 64 51 49 50 51 52 52 48 48 48 47 46 45 46 47 48 49 44 32 35 46 64 67 71 76 84 87 67 72 53
52 60 51 47 48 44 44 49 51 51 50 49 48 48 49 51 57 55 45 40 42 47 62 74 80 76 79 82 90 93 82 64
44 44 44 42 43 44 46 49 56 64 57 52 52 52 52 60 56 46 41 46 45 58 68 72 78 87 81 85 79 85 84 74
43 44 44 44 45 47 51 54 57 57 54 52 53 52 56 48 49 48 54 52 59 59 66 74 77 82 83 82 84 92 85 88
45 45 47 50 51 52 51 51 53 54 54 54 50 49 52 54 52 54 52 47 52 52 54 56 56 62 62 65 78 97 96 98
54 53 54 53 52 52 51 50 49 46 44 45 45 46 46 50 56 55 48 53 59 59 64 69 57 56 57 61 68 73 80 92
51 50 51 52 50 49 42 41 42 45 46 48 49 52 55 60 58 47 53 53 66 59 49 52 40 41 43 48 56 58 52 52

GFSFLT2_925_rhum_030.txt.gz
RH
91 91 92 84 75 59 52 50 47 44 49 53 52 52 53 55 54 54 52 49 47 43 41 40 40 40 40 37 33 36 40 36
89 78 79 82 82 56 50 47 50 51 56 58 58 57 57 56 60 55 53 50 49 46 44 41 35 32 34 33 36 40 39 38
86 72 74 74 66 72 54 51 60 63 62 61 67 65 66 65 54 51 47 48 49 47 47 36 39 42 41 39 41 39 40 38
80 75 80 74 60 66 66 66 69 72 72 77 71 80 77 72 56 50 48 49 50 47 37 41 43 41 40 39 39 43 37 38
77 81 78 63 59 60 61 68 73 78 85 83 86 84 80 67 59 58 60 55 50 47 44 45 52 45 41 40 39 35 33 32
63 69 73 70 59 60 70 69 76 78 83 92 83 76 77 64 56 59 56 53 52 47 46 51 47 44 43 42 41 39 34 33
56 66 67 70 72 74 78 80 85 94 91 91 78 70 71 62 62 54 53 50 48 48 47 45 44 42 43 44 41 41 42 38
63 62 67 70 74 79 88 86 84 80 89 79 71 75 72 63 57 52 51 51 52 49 50 47 45 45 42 45 48 45 45 45
67 71 70 71 78 83 82 80 81 73 85 80 75 68 61 60 56 56 63 60 51 51 50 47 47 46 43 41 39 39 40 45
78 82 81 88 71 72 70 74 66 76 87 80 67 57 64 63 65 65 52 54 52 52 52 53 45 44 41 34 33 31 30 45
83 84 92 69 72 49 80 71 66 74 70 57 52 47 47 52 58 59 57 55 59 56 48 44 40 41 40 29 29 29 24 35
83 86 74 71 70 72 79 74 70 62 64 65 52 59 63 57 59 64 57 52 48 50 48 43 40 39 41 30 33 32 32 42
82 94 80 77 64 87 73 71 69 59 60 63 62 60 59 58 54 54 51 51 53 52 46 41 39 44 50 32 30 30 50 48
83 88 84 79 73 64 58 58 61 57 58 63 60 59 58 59 57 52 50 44 51 51 51 46 38 40 53 48 31 28 26 41
77 74 72 65 58 63 64 66 60 53 55 54 58 61 57 60 56 50 49 47 43 54 53 49 47 43 46 50 46 38 37 36
66 64 57 60 64 55 54 45 45 54 56 56 55 58 57 52 51 54 55 53 56 51 47 56 50 47 43 43 48 48 45 44
65 60 53 58 57 53 55 55 56 55 54 54 55 55 57 54 56 58 60 58 55 59 57 58 52 50 47 45 45 41 38 38
60 52 53 56 58 61 59 58 52 46 45 41 36 39 43 49 61 65 65 62 63 61 60 58 58 55 49 48 44 41 40 39
55 52 55 58 58 53 50 47 44 38 40 40 45 42 43 43 54 63 64 61 67 64 59 61 58 55 52 49 48 48 44 43
51 50 50 51 49 47 46 44 42 43 48 52 43 40 43 52 60 58 56 58 58 59 61 62 64 61 58 54 47 46 44 48

GFSFLT2_925_rhum_033.txt.gz
RH
89 93 82 79 72 61 52 47 50 47 50 53 54 54 51 50 50 50 49 49 45 44 42 36 32 32 33 34 40 38 38 34
87 90 78 90 92 61 51 51 53 56 56 55 52 52 52 55 65 51 50 49 48 46 43 33 40 40 40 38 37 36 37 32
66 61 63 66 76 57 56 55 55 57 61 59 62 57 62 67 56 47 46 46 47 46 38 33 39 42 38 37 36 38 34 33
55 59 61 56 49 62 60 66 65 66 65 66 63 63 69 62 53 47 46 47 47 44 39 41 43 41 38 39 39 40 32 31
56 64 62 47 49 50 53 63 60 63 68 76 69 65 68 66 54 54 55 49 50 44 42 44 49 46 44 45 43 40 36 35
58 64 60 52 49 48 52 56 64 71 76 79 71 70 66 60 47 49 52 46 50 44 44 48 46 45 45 45 45 43 39 39
50 56 59 60 54 58 61 67 79 83 85 82 67 66 66 61 56 49 50 47 46 48 47 46 46 44 45 44 44 43 43 41
50 52 58 62 63 72 80 79 78 79 89 86 64 56 60 61 58 51 49 55 58 53 53 49 47 45 43 42 41 36 34 36
51 59 64 67 78 74 73 75 76 65 67 72 73 73 77 61 58 59 62 57 52 51 51 49 48 42 39 36 34 27 28 28
57 60 65 77 75 64 61 57 79 81 79 89 78 73 68 64 64 61 60 56 55 56 50 46 43 41 36 37 28 25 27 28
64 67 81 82 60 57 60 47 67 89 79 74 72 64 59 56 60 60 58 53 54 52 48 46 42 38 31 30 32 27 30 28
66 75 85 70 61 67 68 71 80 76 68 67 64 62 63 57 59 64 57 50 50 54 53 44 38 32 33 37 37 31 28 35
67 79 87 83 76 71 71 71 63 67 63 64 63 58 58 57 52 54 54 46 54 53 47 40 38 36 36 34 36 33 26 33
74 81 85 72 64 62 57 55 57 53 55 60 57 57 55 54 58 50 50 48 41 41 48 47 41 39 41 37 39 33 28 32
75 77 76 62 54 54 52 55 55 53 54 54 54 57 54 53 53 51 47 43 37 44 46 47 45 43 40 39 41 40 35 33
69 64 56 54 51 47 47 42 40 43 46 48 53 56 53 50 47 49 49 48 48 47 43 49 47 45 40 37 37 37 40 39
50 51 48 50 52 46 50 45 50 51 51 54 54 52 52 46 46 50 52 50 48 50 51 51 48 46 44 39 37 36 36 38
52 45 45 49 50 52 51 53 49 45 44 41 33 32 34 38 41 44 48 48 49 49 51 51 50 56 58 51 47 42 45 45
52 43 45 50 53 54 55 50 44 38 37 34 38 36 34 34 42 47 47 47 46 47 60 60 54 60 67 65 50 51 48 47
43 44 46 51 51 47 42 38 36 36 39 41 35 35 38 42 42 44 45 46 45 44 47 55 56 66 71 63 55 58 53 50

GFSFLT2_925_rhum_036.txt.gz
RH
87 90 80 73 58 54 55 54 39 36 47 49 48 47 46 44 43 44 45 44 42 41 33 35 40 39 37 36 37 38 36 41
89 85 83 68 59 54 53 49 42 50 49 48 48 45 48 66 59 45 44 44 43 42 34 36 40 41 38 37 39 36 34 32
82 85 77 56 52 54 50 47 52 52 49 50 59 62 66 64 46 42 43 44 43 42 35 41 44 45 43 42 42 40 38 34
68 76 70 61 58 53 52 48 54 59 51 66 69 69 63 56 41 41 44 43 50 45 43 46 49 46 45 46 46 43 40 38
64 61 58 52 48 61 64 64 67 70 71 69 66 64 67 66 54 54 58 49 57 47 47 49 48 47 45 45 45 45 44 43
65 58 50 48 53 52 57 66 65 68 71 74 60 67 65 59 53 52 50 47 47 49 51 48 46 46 46 46 45 44 43 40
63 58 52 48 50 62 63 66 80 75 82 79 70 69 66 61 57 54 50 51 52 52 49 49 49 48 46 42 40 39 33 31
58 59 55 52 61 66 70 75 80 85 80 83 71 59 58 67 60 55 54 54 48 50 53 52 49 46 42 39 39 34 26 28
54 58 62 70 73 71 75 74 58 57 79 70 77 64 69 62 60 56 58 56 54 56 54 49 46 45 43 37 34 31 28 28
57 63 73 75 72 68 48 49 71 69 73 76 84 74 70 65 62 58 49 55 56 58 50 50 47 43 37 31 33 35 33 31
58 69 76 70 56 57 72 62 71 71 72 67 75 70 65 54 56 60 60 55 52 52 56 51 43 39 35 31 35 37 38 33
60 79 86 63 59 73 71 66 54 64 67 67 59 57 61 59 60 63 56 52 52 55 54 48 44 42 42 41 39 38 34 36
65 81 87 72 82 73 70 73 68 66 66 63 64 62 60 57 54 55 55 51 48 47 47 50 49 45 45 46 43 39 34 34
75 81 82 80 69 65 66 63 63 62 59 63 58 58 57 58 59 53 50 50 45 42 46 49 50 47 46 48 58 45 37 38
77 82 82 75 66 58 56 54 55 55 58 61 58 58 57 54 54 52 51 49 47 47 48 49 51 49 49 47 59 60 47 40
76 77 75 71 55 52 52 54 54 50 51 55 58 58 54 52 50 49 49 51 51 50 49 50 52 53 50 48 46 44 58 54
72 71 69 61 50 48 50 48 50 51 51 56 55 56 54 51 44 45 50 52 52 50 51 54 55 55 54 56 57 52 44 53
70 64 52 51 49 48 49 47 48 50 49 49 43 37 36 37 39 42 46 47 50 50 48 53 57 58 58 66 66 64 62 56
51 45 45 49 50 52 55 54 47 43 38 36 38 38 35 36 42 46 46 45 45 46 48 51 58 60 62 70 75 79 68 55
49 44 45 49 53 54 52 45 39 35 40 44 42 35 39 41 39 39 40 40 40 42 45 50 51 60 63 71 75 68 62 60